This is the latest recevied weather packets stored in our database for station/object IW0REF-9. If no packets are shown the sender has not sent any weather packets the latest 10 day(s).
| Time | Temp. | Humidity | Pressure | Rain* | Wind** | Luminosity | Snow |
|---|---|---|---|---|---|---|---|
| 1777459423 | 25° C | 23% | 999.4 hPa | - | - | - | - |
| 1777458522 | 23.89° C | 24% | 999.4 hPa | - | - | - | - |
| 1777457621 | 23.89° C | 24% | 999.4 hPa | - | - | - | - |
| 1777456720 | 23.33° C | 24% | 999.6 hPa | - | - | - | - |
| 1777455820 | 22.78° C | 25% | 999.7 hPa | - | - | - | - |
| 1777454919 | 22.22° C | 26% | 999.8 hPa | - | - | - | - |
| 1777454018 | 21.67° C | 26% | 999.7 hPa | - | - | - | - |
| 1777453117 | 21.11° C | 27% | 999.7 hPa | - | - | - | - |
| 1777452216 | 20.56° C | 27% | 999.7 hPa | - | - | - | - |
| 1777451315 | 20° C | 27% | 999.6 hPa | - | - | - | - |
| 1777450415 | 20° C | 27% | 999.6 hPa | - | - | - | - |
| 1777449514 | 20° C | 26% | 999.6 hPa | - | - | - | - |
| 1777448614 | 20.56° C | 25% | 999.4 hPa | - | - | - | - |
| 1777447713 | 20° C | 25% | 999.5 hPa | - | - | - | - |
| 1777446812 | 18.89° C | 26% | 999.5 hPa | - | - | - | - |
| 1777445911 | 18.33° C | 26% | 999.6 hPa | - | - | - | - |
| 1777445011 | 17.78° C | 26% | 999.6 hPa | - | - | - | - |
| 1777444110 | 17.22° C | 26% | 999.6 hPa | - | - | - | - |
| 1777443209 | 17.22° C | 26% | 999.6 hPa | - | - | - | - |
| 1777442308 | 17.22° C | 25% | 999.6 hPa | - | - | - | - |
| 1777441407 | 17.22° C | 25% | 999.5 hPa | - | - | - | - |
| 1777440506 | 17.22° C | 25% | 999.4 hPa | - | - | - | - |
| 1777439606 | 17.22° C | 25% | 999.3 hPa | - | - | - | - |
| 1777438705 | 16.67° C | 25% | 999.2 hPa | - | - | - | - |
| 1777437804 | 16.67° C | 26% | 999 hPa | - | - | - | - |
* Rain since midnight (hover to see other rain measurements)
** Current wind speed in m/s (hover to see current wind gust speed)